This is the latest recevied weather packets stored in our database for station/object F4FEB-14. If no packets are shown the sender has not sent any weather packets the latest 10 day(s).
| Time | Temp. | Humidity | Pressure | Rain* | Wind** | Luminosity | Snow |
|---|---|---|---|---|---|---|---|
| 1777752398 | 13.33° C | 100% | 1019.3 hPa | 0 mm | - | - | - |
| 1777752096 | 13.33° C | 100% | 1019.4 hPa | 0 mm | - | - | - |
| 1777751795 | 13.33° C | 100% | 1019.2 hPa | 0 mm | - | - | - |
| 1777751494 | 13.33° C | 100% | 1019.3 hPa | 0 mm | - | - | - |
| 1777751192 | 13.33° C | 100% | 1019.3 hPa | 0 mm | - | - | - |
| 1777750892 | 13.33° C | 100% | 1019.3 hPa | 0 mm | - | - | - |
| 1777750588 | 13.89° C | 100% | 1019.4 hPa | 0 mm | - | - | - |
| 1777750284 | 13.89° C | 100% | 1019.3 hPa | 0 mm | - | - | - |
| 1777749679 | 13.89° C | 100% | 1019.2 hPa | 0 mm | - | - | - |
| 1777748774 | 15° C | 100% | 1018.9 hPa | 0 mm | - | - | - |
| 1777747871 | 15° C | 100% | 1018.6 hPa | 0 mm | - | - | - |
| 1777747568 | 15.56° C | 100% | 1018.5 hPa | 0 mm | - | - | - |
| 1777747267 | 16.11° C | 100% | 1018.5 hPa | 0 mm | - | - | - |
| 1777746666 | 16.67° C | 100% | 1018.4 hPa | 0 mm | - | - | - |
| 1777746064 | 17.22° C | 95% | 1018.5 hPa | 0 mm | - | - | - |
| 1777745761 | 17.78° C | 83% | 1018.4 hPa | 0 mm | - | - | - |
| 1777745459 | 17.78° C | 81% | 1018.5 hPa | 0 mm | - | - | - |
| 1777745158 | 18.33° C | 75% | 1018.5 hPa | 0 mm | - | - | - |
| 1777744858 | 18.89° C | 70% | 1018.5 hPa | 0 mm | - | - | - |
| 1777744555 | 18.89° C | 65% | 1018.5 hPa | 0 mm | - | - | - |
| 1777744255 | 19.44° C | 62% | 1018.5 hPa | 0 mm | - | - | - |
| 1777743952 | 20° C | 58% | 1018.4 hPa | 0 mm | - | - | - |
| 1777743651 | 20° C | 55% | 1018.5 hPa | 0 mm | - | - | - |
| 1777743347 | 20° C | 52% | 1018.5 hPa | 0 mm | - | - | - |
| 1777743044 | 20.56° C | 49% | 1018.6 hPa | 0 mm | - | - | - |
* Rain latest hour (hover to see other rain measurements)
** Current wind speed in m/s (hover to see current wind gust speed)